Flag for Germany Weather past 2 weeks in Dietzenbach, Hesse, Germany

Now
48 °F

Overcast.


Feels Like: 44 °F
Forecast: 38 / 53 °F
Wind: 7 mph from North

Location: Frankfurt / M-Flughafen

Current Time: Apr 27, 2015 at 10:58:17 PM

Latest Report: Apr 27, 2015 at 10:00 PM


Visibility: 31 mi

Pressure: 29.72 "Hg

Humidity: 84%

Dew point: 43 °F

Location of DietzenbachLocation

Historic Weather in Dietzenbach — Graph

°F

Dietzenbach temperature yesterday

Maximum temperature yesterday: 69 °F (at 6:00 PM)
Minimum temperature yesterday: 51 °F (at 2:00 AM)
Average temperature yesterday: 60 °F

Past Weeks' High & Low Weather Summary

 TemperatureHumidityPressure
High77 °F (Apr 15, 6:00 PM)100% (Apr 26, 3:00 AM)30.47 "Hg (Apr 26, 3:00 AM)
Low35 °F (Apr 23, 6:00 AM)20% (Apr 21, 5:00 PM)29.57 "Hg (Apr 27, 7:00 AM)
Average55 °F58%30.10 "Hg
* Reported Apr 12 9:00 PM — Apr 27 9:00 PM, Dietzenbach, Weather by CustomWeather, © 2015

Note: Actual official high and low records may vary slightly from our data, if they occured in-between our weather recording intervals... More about our weather records

Advertising

Dietzenbach weather history for previous 24 hours

 ConditionsComfort  
Time TempWeatherWind HumidityBarometerVisibility
9:00 PM
Mon, Apr 27
48 °FLight rain. Overcast.8 mph87%29.70 "Hg25 mi
8:00 PM49 °FOvercast.7 mph84%29.69 "Hg31 mi
7:00 PM50 °FLight rain. Overcast.8 mph89%29.68 "Hg11 mi
6:00 PM52 °FLight rain. Overcast.9 mph88%29.66 "Hg10 mi
4:00 PM54 °FRain. Overcast.6 mph96%29.65 "Hg7 mi
3:00 PM55 °FLight rain. Overcast.6 mph91%29.65 "Hg12 mi
2:00 PM56 °FLight rain. Overcast.6 mph91%29.63 "Hg14 mi
1:00 PM57 °FLight rain. Overcast.3 mph81%29.63 "Hg16 mi
12:00 PM58 °FLight rain. Overcast.7 mph78%29.63 "Hg12 mi
10:00 AM57 °FLight rain. Low clouds.7 mph91%29.60 "Hg16 mi
9:00 AM56 °FLow clouds.3 mph99%29.59 "Hg11 mi
8:00 AM56 °FLow clouds.3 mph99%29.58 "Hg4 mi
7:00 AM55 °FLight rain. Low clouds.3 mph99%29.57 "Hg3 mi
6:00 AM55 °FSprinkles. Overcast.1 mph100%29.57 "Hg3 mi
4:00 AM55 °FFog.1 mph100%29.59 "Hg7 mi
3:00 AM57 °FLow clouds.5 mph99%29.59 "Hg9 mi
2:00 AM57 °FOvercast.2 mph100%29.60 "Hg22 mi
1:00 AM58 °FSprinkles. Overcast.2 mph98%29.61 "Hg19 mi
12:00 AM57 °FOvercast.1 mph99%29.64 "Hg9 mi
10:00 PM
Sun, Apr 26
63 °FOvercast.2 mph67%29.64 "Hg34 mi
Weather by CustomWeather, © 2015

See weather overviewHow to use our weather pages